Location: Coopersdale
(40.3556°N, 78.9372°W)
Time: 08:11:36
(UTC+00:00)

Tiros 1 - Pass Details

Date: 25 January 2021
Orbit: 630 x 664 km, 48.4° (Epoch: 05 March)

Event Time Altitude Azimuth Distance (km) Brightness Sun altitude
Rises 00:25:52 0° 268° (W) 2,925 12.0 -23.0°
Reaches altitude 10° 00:28:20 10° 276° (W) 2,014 10.7 -23.4°
Maximum altitude 00:32:39 37° 345° (NNW) 974 8.1 -24.3°
Enters shadow 00:33:03 37° 357° (N) 987 8.0 -24.3°
